Showing default

TOMORROW-S7, 63631

Orbit data source: Space-Track

TOMORROW-S7, 63631 is a payload satellite owned by Tomorrow.io (US) in LEO that was launched on Tue, 22 Apr 2025 UTC via an FALCON 9 launch vehicle from the Air Force Eastern Test Range (AFETR). Payload-class satellites include a variety of spacecraft equipped with specific instruments for various scientific and technological missions. These include communications satellites like Starlink; space stations such as the ISS; scientific satellites like the Hubble; Earth observation satellites from companies like Planet Labs, Umbra, and HawkEye 360; GPS; miniature CubeSats for education and research; and military/defense satellites.

Loading next visibility...
Identifier
63631, 2025-081B
Orbit
LEO
Country
Flag of USUS
Related business
Manufacturer
Blue Canyon
Mission
Operational Commercial Weather
Bus & Motor
CUBESAT 6U, Unknown motor
Mass
12 kg wet, 12 kg dry
Launch date (UTC)
2025-04-22 (1 year ago)
Launch vehicle
FALCON 9
Launch site
Air Force Eastern Test Range (AFETR)
Object type
Payload
Rocket body
Debris
Shape & HBR
Box + 2 Pan, 1.0 m
Radar Cross Section
0.138 m², Medium (>0.1 m² and < 1m²)

Expand to show TLE details & history
Last TLE update: 6 hours ago

TLE from 6 hours ago
0 TOMORROW-S7
1 63631U 25081B   26126.61560887  .00001649  00000-0  15080-3 0  9990
2 63631  45.3909 191.6764 0001307 355.6633   4.4233 14.99479487 56938
Epoch: 2026-05-06T14:46Z
TLE epoch observation values (Epoch: 2026-05-06T14:46:28.606Z)
Latitude
-0.00006°
Longitude
105.5836°
Altitude
567.64 km
Speed
7.579 km/s
True Right ascension
12h 46m 42s
True Declination
0° 00' 00"
Sunlit
Object was in full shadow at epoch
Visualization orbit readout
Latitude
Unknown
Longitude
Unknown
Altitude
Unknown
Speed
Unknown
Apparent Right ascension
Unknown
Apparent Declination
Unknown
Sunlit
N/A
Visualization observer readout
Local Sidereal Time
04:31:08
Azimuth
Unknown
Elevation
Unknown
Doppler factor
Unknown
Orbital elements
Apogee altitude
570.936 km
Perigee altitude
569.12 km
Semi-major axis
6,948.165 km
Eccentricity
0.00013
Inclination
45.3909°
RAAN
191.6764°
Arg. of periapsis
355.6633°
True anomaly
4.42446°
Mean anomaly
4.4233°
Eccentric anomaly
4.42388°
Mean motion
3.74747 °/min
Orbital period
96.06 mins
BSTAR
0.0001508
Loading maneuver chart data...
Computing Atmospheric mass density...
Loading historical data...
Loading historical data...
Loading historical data...
Loading historical data...
Loading historical data...
Loading historical data...
Loading historical data...
Other satellites on launch #81 in the year 2025 (2025-04-22 UTC)

Documentation

Showing up to 5 results
|